GEFSMA_con_probscp_210.txt.gz
Probability
0 1 1 0 0 0 0 0 0 0 0 0 0 0 0 0 0 0 0 0 0 0 0 0 0 0 0 0 0 0 0 0 0 0 0 0 0 0 0 0 0 0 0
1 2 1 0 0 0 0 0 0 0 0 0 0 0 0 0 0 0 0 0 0 0 0 0 0 0 0 0 0 0 0 0 0 0 0 0 0 0 0 0 0 0 0
1 2 2 0 0 0 0 0 0 0 0 0 0 0 0 0 0 0 0 0 0 0 0 0 0 0 0 0 0 0 0 0 0 0 0 0 0 0 0 0 0 0 0
1 2 2 1 0 0 0 0 0 0 0 0 0 0 0 0 0 0 0 0 0 0 0 0 0 0 0 0 0 0 0 0 0 0 0 0 0 0 0 0 0 0 0
0 1 1 1 0 0 0 0 0 0 1 1 0 0 0 0 0 0 0 0 0 0 0 0 0 0 0 0 1 1 1 1 0 0 0 0 0 0 0 0 0 0 0
0 0 1 1 0 0 0 1 1 1 1 2 1 0 0 0 0 0 0 0 0 0 0 0 0 0 1 1 2 3 3 2 1 1 0 0 0 0 0 0 0 0 0
0 0 0 1 0 0 0 1 1 1 1 2 1 0 0 0 0 0 0 0 0 0 0 1 1 2 3 2 2 2 3 2 2 1 0 0 0 0 0 0 0 0 0
0 0 0 0 0 0 0 1 1 1 1 2 2 1 0 0 0 0 0 0 0 0 1 2 3 2 3 2 1 1 1 1 1 1 0 0 0 0 0 0 0 0 0
2 2 2 1 1 1 2 2 2 2 2 3 4 3 2 2 2 1 1 1 1 1 2 2 2 1 1 2 1 0 0 0 0 0 0 0 1 1 1 1 1 1 1
6 5 5 4 3 3 4 4 4 4 6 7 7 5 3 3 3 3 3 3 3 2 1 1 0 0 0 1 1 0 0 0 0 0 0 0 0 0 0 1 1 2 3
10 8 7 6 5 4 5 5 4 5 8 8 6 4 3 3 3 3 4 5 4 2 1 1 1 0 0 1 1 0 0 0 0 0 0 0 1 1 1 1 2 3 4
12 10 8 6 5 5 5 6 5 5 6 6 5 4 2 2 2 2 2 3 2 1 1 1 1 1 0 0 0 0 0 0 0 0 0 0 1 2 2 2 3 3 4
12 11 9 7 7 7 7 7 7 7 7 7 6 5 3 2 3 2 1 0 0 0 0 1 1 1 1 1 0 0 0 0 0 0 0 0 1 1 1 1 2 3 3
11 11 10 9 9 9 9 10 9 8 9 9 7 5 4 2 2 2 1 1 1 0 0 0 0 1 2 1 1 0 0 0 0 0 0 0 0 0 0 0 1 1 2
12 12 11 11 12 12 11 11 11 10 11 10 7 5 5 3 2 2 3 4 3 2 1 0 1 2 3 3 1 1 0 0 0 0 0 0 0 0 0 0 0 0 1
17 15 14 15 15 13 13 13 13 13 14 12 8 6 6 6 5 5 6 7 7 6 3 1 2 3 4 4 3 2 2 2 1 0 0 0 0 0 0 0 0 0 0
23 22 21 21 18 15 14 13 12 13 14 12 9 6 6 6 6 8 9 9 10 8 5 2 2 3 4 4 3 3 3 3 3 1 0 0 0 0 0 0 0 0 0
27 27 26 24 20 16 15 13 11 10 10 10 9 7 5 6 9 11 11 10 9 8 7 4 3 4 3 2 2 1 1 2 2 1 0 0 0 0 0 0 0 0 0
27 27 25 22 18 15 13 13 12 12 10 8 8 9 7 8 12 14 13 11 9 8 9 6 3 3 2 1 1 0 0 0 0 0 0 0 0 0 0 0 0 0 0
26 26 23 18 14 12 11 12 14 13 12 10 10 11 10 10 12 13 12 12 10 9 9 7 3 1 1 1 0 0 0 0 0 0 0 0 0 0 0 0 0 0 0
25 24 21 17 14 11 9 9 11 12 11 11 12 12 12 10 9 9 8 9 9 8 8 6 3 1 0 0 0 0 0 0 0 1 1 0 0 0 0 0 0 0 0
21 20 18 16 14 10 7 6 6 7 9 11 12 12 11 9 6 5 4 5 5 5 5 5 3 1 0 0 0 0 0 0 1 2 2 1 0 0 0 0 0 0 0
17 16 15 15 13 9 6 3 3 5 8 10 11 11 9 6 5 4 3 2 1 2 2 2 2 1 0 0 0 0 1 1 1 2 3 1 1 0 0 0 0 0 0
15 13 13 12 11 9 6 2 3 6 8 9 9 9 8 5 3 3 2 1 0 0 0 0 0 0 0 0 0 1 2 2 2 3 3 2 1 0 0 0 0 0 0
12 11 11 10 10 9 6 3 3 7 8 8 7 7 6 4 2 1 1 1 1 0 0 0 0 0 0 0 1 2 3 3 3 3 3 3 1 0 0 0 0 0 0
10 10 10 10 10 9 6 3 3 7 8 7 6 6 5 3 1 1 2 2 2 1 0 0 0 0 0 0 1 2 3 3 3 3 3 2 1 0 0 0 0 0 0

GEFSMA_con_probscp_216.txt.gz
Probability
4 4 3 2 1 1 1 1 2 2 2 2 1 1 1 0 0 0 1 2 2 1 0 0 0 0 0 0 0 0 0 0 0 0 0 0 0 0 0 0 0 0 0
3 3 5 6 3 2 2 3 3 3 3 3 2 1 1 1 1 1 0 1 2 1 1 1 1 1 1 0 0 0 0 0 0 0 0 0 0 0 0 0 0 0 0
3 4 6 7 5 4 3 3 4 3 3 4 3 2 2 2 2 2 1 1 1 1 2 3 3 3 3 2 2 2 1 1 0 0 0 0 0 0 0 0 0 0 0
5 5 5 5 4 4 3 3 2 3 3 4 3 2 2 2 3 2 1 1 2 3 3 4 5 6 6 6 6 6 5 3 1 1 0 0 0 0 0 0 0 0 0
4 4 4 4 3 3 2 1 2 2 3 3 3 2 1 1 2 2 0 1 4 5 5 4 5 6 7 8 8 7 7 6 4 2 1 0 0 0 0 0 0 0 0
3 4 5 6 5 3 1 1 3 4 4 3 2 1 0 1 2 2 2 2 3 4 5 6 6 5 6 7 6 5 6 7 5 3 1 1 0 0 0 0 0 0 0
9 8 8 9 8 4 2 4 6 6 4 3 3 1 1 1 2 2 3 3 2 2 5 8 7 5 5 5 3 3 4 6 6 4 3 2 1 0 0 0 0 0 0
19 16 14 12 10 7 6 7 8 7 4 4 4 2 1 1 1 1 3 3 2 3 6 7 8 9 8 5 2 1 2 4 4 4 4 3 2 2 2 1 1 0 0
25 22 19 16 13 9 7 8 10 9 6 5 4 3 1 1 0 0 1 1 2 4 5 5 6 9 10 6 3 1 1 1 2 3 3 3 3 2 2 2 2 1 0
25 25 24 22 18 10 6 7 10 11 9 6 3 2 1 1 1 0 0 0 1 3 4 4 5 7 8 7 5 3 1 0 0 1 2 3 3 2 2 2 2 1 1
25 27 29 28 22 13 8 6 9 12 10 6 3 2 2 2 1 0 0 0 1 2 3 3 5 6 6 5 4 3 2 1 0 1 1 2 4 3 2 2 2 1 2
28 29 29 28 24 19 13 9 9 10 10 7 4 3 3 3 2 0 0 0 1 2 2 2 2 3 3 3 2 2 2 1 0 0 0 1 3 3 3 3 3 3 3
30 28 27 27 26 23 18 14 13 11 10 8 6 5 4 3 2 1 0 0 0 1 1 0 0 1 2 3 2 1 1 1 0 0 0 0 1 1 1 2 3 3 3
30 29 29 29 28 24 20 17 16 15 13 10 7 6 5 4 3 2 1 1 1 0 0 0 0 1 2 3 2 1 1 0 0 0 0 0 0 0 0 1 2 3 3
29 29 30 30 29 26 22 19 19 18 15 11 9 8 6 4 3 3 3 4 4 2 1 1 2 3 3 3 1 1 1 0 0 0 0 0 0 0 0 0 1 2 2
30 28 26 27 28 26 24 22 21 19 16 13 11 9 6 4 3 3 4 7 7 5 2 2 3 5 4 3 1 0 0 0 0 0 0 0 0 0 0 0 0 1 1
29 26 24 25 25 23 22 22 21 20 18 15 13 10 7 5 4 4 4 6 8 7 3 2 3 5 5 3 1 0 0 0 0 0 0 0 0 0 0 0 0 0 0
27 24 23 23 22 20 20 20 19 19 18 16 14 12 10 8 8 7 6 8 9 7 4 2 2 3 4 2 1 0 0 0 0 0 0 0 0 0 0 0 0 0 0
25 23 22 21 19 18 18 18 18 17 15 14 14 14 13 12 11 11 11 11 11 9 5 3 2 2 2 1 1 0 0 0 0 0 0 0 0 0 0 0 0 0 0
25 24 22 20 18 15 15 17 17 15 13 11 12 13 13 12 12 12 13 14 13 11 8 5 2 1 0 0 0 0 0 0 0 0 0 0 0 0 0 0 0 0 0
25 24 22 21 18 15 14 15 16 13 11 11 10 11 11 10 9 9 11 12 13 12 9 6 2 0 0 0 0 0 0 0 0 0 0 0 0 0 0 0 0 0 0
25 23 21 20 19 15 13 12 13 12 11 10 10 10 9 8 6 6 6 7 9 8 6 4 2 0 0 0 0 0 0 0 0 0 0 0 0 0 0 0 0 0 0
21 20 18 18 17 14 11 9 10 11 10 10 10 9 9 8 6 5 4 3 3 3 3 2 1 0 0 0 0 0 0 0 0 0 0 0 1 1 0 0 0 0 0
17 17 16 15 14 12 10 8 8 9 10 10 10 9 9 8 6 4 3 2 2 1 1 0 0 0 0 0 0 0 0 0 0 0 1 1 1 1 1 0 0 0 0
15 15 13 12 12 10 8 6 7 9 10 10 9 9 9 7 5 3 2 2 2 1 1 1 0 0 0 0 0 0 0 0 0 1 2 2 2 1 1 0 0 0 0
14 13 11 10 10 9 7 4 6 8 10 10 9 8 7 6 4 2 2 2 1 1 2 2 1 0 0 0 0 0 0 0 0 1 2 3 3 2 1 0 0 0 0

GEFSMA_con_probscp_222.txt.gz
Probability
1 1 1 0 0 0 0 0 0 0 0 0 0 0 0 0 0 0 0 0 1 1 1 1 1 1 1 0 0 0 0 0 0 0 0 0 0 0 0 0 0 0 0
0 0 0 0 0 0 0 0 0 0 0 0 0 0 0 0 0 0 0 0 1 2 2 2 2 2 1 0 0 0 0 0 0 0 0 0 0 0 0 0 0 0 0
0 0 0 0 0 0 0 0 0 0 0 0 0 0 0 0 0 0 0 0 1 1 1 1 1 1 1 0 0 0 0 0 0 0 0 0 0 0 0 0 0 0 0
1 0 0 0 0 0 0 0 0 0 0 0 0 0 0 0 0 0 0 0 0 0 0 0 0 0 0 0 0 0 0 0 0 0 0 0 0 0 0 0 0 0 0
2 1 0 0 0 0 0 0 0 0 0 0 0 0 0 0 0 0 0 0 0 0 0 0 0 0 1 1 1 0 0 0 0 0 0 0 0 0 0 0 0 0 0
2 1 0 0 0 0 0 0 0 0 0 0 0 0 0 0 0 0 0 0 0 0 0 0 0 0 1 2 2 1 1 1 1 0 1 1 2 1 1 0 0 0 0
2 2 2 1 0 0 0 0 0 0 0 0 0 0 0 0 0 0 0 0 0 0 0 0 0 0 1 2 2 2 3 3 2 1 1 2 2 2 1 0 0 0 0
3 3 3 2 1 1 1 0 0 0 0 0 0 0 0 0 0 0 0 0 0 0 0 0 1 0 0 1 1 2 3 4 4 3 3 3 2 1 0 0 0 0 0
4 3 3 3 3 2 2 1 0 0 0 0 0 0 0 0 0 0 0 0 0 0 0 0 0 0 0 0 0 1 2 3 4 4 3 3 2 1 1 0 0 0 0
4 4 3 3 3 3 3 2 1 0 0 0 0 0 0 0 0 0 0 0 0 0 0 0 0 0 0 0 0 0 1 1 3 4 4 4 3 3 2 1 0 0 0
3 3 3 3 3 3 3 3 2 1 0 0 0 0 0 0 0 0 0 0 0 0 0 0 0 0 0 0 0 0 0 0 1 3 4 4 3 3 3 2 1 1 0
2 3 3 3 4 4 4 4 3 1 1 0 0 0 0 0 0 0 0 0 0 0 0 0 0 0 0 0 0 0 0 0 0 1 2 3 2 2 2 2 2 2 1
2 3 3 4 5 5 6 5 4 3 3 1 1 0 0 0 0 0 0 0 0 0 0 0 0 0 0 0 0 0 0 0 0 0 0 1 1 0 1 1 2 2 1
3 3 3 4 5 6 6 6 6 7 5 3 2 1 0 0 0 0 0 0 0 0 0 0 0 0 0 0 0 0 0 0 0 0 0 0 0 0 0 0 1 1 0
4 4 4 4 5 5 5 6 8 8 6 3 2 1 0 0 0 0 0 0 0 0 0 0 0 0 0 0 0 0 0 0 0 0 0 0 0 0 0 0 0 0 0
5 5 5 6 6 6 6 8 8 7 5 3 2 1 0 0 0 0 0 0 0 0 0 0 0 0 0 0 0 0 0 0 0 0 0 0 0 0 0 0 0 0 0
5 5 5 6 6 7 9 9 8 6 5 3 2 1 0 0 0 0 0 0 0 0 0 0 0 0 0 0 0 0 0 0 0 0 0 0 0 0 0 0 0 0 0
5 5 5 5 5 7 10 11 8 6 5 2 1 0 0 0 0 0 0 0 0 1 1 1 1 0 0 0 0 0 0 0 0 0 0 0 0 0 0 0 0 0 0
7 6 6 6 6 7 10 11 9 6 4 1 0 0 0 0 0 0 0 1 2 2 2 2 2 1 0 0 0 0 0 0 0 0 0 0 0 0 0 0 0 0 0
7 7 8 8 7 7 8 9 9 6 4 2 1 1 1 1 1 0 1 2 3 3 3 3 3 2 1 0 0 0 0 0 0 0 0 0 0 0 0 0 0 0 0
8 8 8 8 8 7 8 9 9 6 5 4 3 2 2 2 2 1 1 3 4 3 3 3 3 2 1 0 0 0 0 0 0 0 0 0 0 0 0 0 0 0 0
9 9 9 9 9 8 8 9 9 8 6 5 4 4 3 3 3 3 3 3 3 3 3 2 1 1 0 0 0 0 0 0 0 0 0 0 0 0 0 0 0 0 0
12 11 10 10 10 9 9 8 8 8 7 7 6 5 3 2 3 3 3 3 3 2 1 1 0 0 0 0 0 0 0 0 0 0 0 0 0 0 0 0 0 0 0
12 11 10 10 10 9 8 7 6 7 7 7 6 6 5 4 3 3 3 2 2 1 0 0 0 0 0 0 0 0 1 1 1 0 0 0 0 0 0 0 0 0 0
10 9 9 9 9 8 7 6 6 7 7 6 5 5 6 5 4 2 1 1 1 0 1 1 0 0 0 0 0 1 2 2 2 1 0 0 0 0 0 0 0 0 0
8 8 8 9 8 7 6 6 6 7 7 5 4 4 5 5 4 1 0 0 0 1 2 2 1 0 0 0 0 1 2 3 2 1 0 0 0 0 0 0 0 0 0

GEFSMA_con_probscp_228.txt.gz
Probability
0 0 0 0 0 0 0 0 0 0 0 0 0 0 0 0 0 0 0 0 1 2 2 1 0 0 0 0 0 0 0 0 0 0 0 0 0 0 0 0 0 0 0
0 0 0 0 0 0 0 0 0 0 0 0 0 0 0 0 0 0 0 0 0 1 1 0 0 0 0 0 0 0 0 0 0 0 0 0 0 0 0 0 0 0 0
1 0 1 1 0 0 0 0 0 0 0 0 0 0 0 0 0 1 0 0 0 0 0 0 0 0 0 1 1 0 0 0 0 0 0 0 0 0 0 0 0 0 0
2 1 2 2 1 0 0 0 0 0 0 0 0 0 0 0 0 0 0 0 0 0 0 0 0 0 1 1 1 1 1 0 0 0 0 0 0 0 0 0 0 0 0
2 1 2 2 1 0 0 0 0 0 0 0 0 0 0 0 0 0 0 0 0 0 0 0 0 0 1 2 3 3 3 2 1 1 0 0 0 0 0 0 0 0 0
3 2 1 1 0 0 0 0 0 0 0 0 0 0 0 0 0 0 0 0 0 0 0 0 0 0 1 3 4 5 5 5 5 3 2 1 1 0 0 0 0 0 0
4 3 2 1 0 0 0 0 0 0 0 0 0 0 0 0 0 0 0 0 0 0 0 0 0 0 1 1 2 3 5 6 6 5 4 4 3 2 1 1 0 0 0
4 4 3 2 1 0 0 0 0 0 0 0 0 0 0 0 0 0 0 0 0 0 0 0 0 0 0 0 0 1 2 3 4 4 4 5 5 5 4 3 2 1 0
3 3 3 3 2 1 1 0 0 0 0 0 0 0 0 0 0 0 0 0 0 0 0 0 0 0 0 0 0 0 0 1 2 3 3 4 4 5 6 6 6 4 2
2 3 3 3 3 3 2 1 1 0 0 0 0 0 0 0 0 0 0 0 0 0 0 0 0 0 0 0 0 0 0 0 1 2 3 3 3 4 5 6 6 5 4
2 3 4 3 3 3 3 3 2 1 0 0 0 0 0 0 0 0 0 0 0 0 0 0 0 0 0 0 0 0 0 0 0 1 1 2 2 1 2 3 3 2 2
4 5 5 4 4 3 3 3 3 2 1 0 0 0 0 0 0 0 0 0 0 0 0 0 0 0 0 0 0 0 0 0 0 0 0 1 1 0 0 1 1 0 0
6 6 5 5 4 4 3 3 3 3 2 1 0 0 1 1 0 0 0 0 0 0 0 0 0 0 0 0 0 0 0 0 0 0 0 0 0 0 0 0 1 1 1
6 5 4 4 4 3 3 3 3 3 2 1 0 1 2 2 1 0 0 0 0 0 0 0 0 0 0 0 0 0 0 0 0 0 0 0 0 0 0 0 0 0 0
4 3 3 3 3 3 3 3 3 3 2 1 0 1 2 2 2 1 0 0 0 0 0 0 0 0 0 0 0 0 0 0 0 0 0 0 0 0 0 0 0 0 0
2 2 3 3 3 3 3 3 3 3 3 1 0 1 2 1 1 1 0 0 0 0 0 0 0 0 0 0 0 0 0 0 0 0 0 0 0 0 0 0 0 0 0
1 2 3 3 3 3 3 3 3 3 3 2 1 1 1 1 0 0 0 0 0 0 0 0 0 0 0 0 0 0 0 0 0 0 0 0 0 0 0 0 0 0 0
2 3 4 4 4 4 3 4 4 4 4 3 2 1 1 1 1 1 0 0 0 0 0 0 0 0 0 0 0 0 0 0 0 0 0 0 0 0 0 0 0 0 0
3 3 4 5 5 4 4 5 5 6 5 4 2 1 1 2 2 2 1 0 0 0 0 0 0 0 0 0 0 0 0 0 0 0 0 0 0 0 0 0 0 0 0
3 3 3 4 4 4 3 4 5 5 5 3 1 0 1 2 3 3 2 1 1 0 0 0 0 0 1 1 1 0 0 0 0 0 0 0 0 0 0 0 0 0 0
5 4 4 3 3 3 3 4 4 5 5 3 2 2 2 3 3 3 2 2 2 1 1 2 1 0 1 2 1 0 0 0 0 0 0 0 0 0 0 0 0 0 0
7 7 6 5 4 4 4 4 5 7 7 6 5 5 5 5 4 3 2 1 2 2 2 3 2 1 1 2 2 0 0 0 0 0 0 0 0 0 0 0 0 0 0
10 10 9 8 7 6 6 5 5 7 8 7 6 6 6 6 6 5 3 2 1 1 1 2 3 3 3 3 2 1 0 0 0 1 1 1 2 1 0 0 0 0 0
12 12 11 10 9 9 7 5 4 6 8 7 7 6 6 6 6 6 5 4 3 2 1 1 2 3 3 3 3 2 1 1 1 2 2 3 3 2 0 0 0 0 0
11 11 10 9 9 8 6 3 3 5 7 8 7 6 6 6 6 5 6 6 5 4 2 1 2 2 1 1 2 3 3 2 3 3 3 3 3 1 0 0 0 0 0
9 9 8 8 8 7 4 2 1 4 7 7 7 6 6 6 6 5 6 6 6 5 3 2 2 1 0 0 1 3 3 3 3 3 3 3 2 1 0 0 0 0 0

GEFSMA_con_probscp_234.txt.gz
Probability
1 1 1 1 0 0 0 0 0 0 0 0 0 0 0 0 0 0 0 0 0 0 0 0 0 0 0 0 0 0 0 0 0 0 0 0 0 0 0 0 0 0 0
2 2 2 2 1 0 0 0 1 1 0 0 0 0 0 0 0 0 0 0 0 0 0 0 0 0 0 0 0 0 0 0 0 0 0 0 0 0 0 0 0 0 0
4 3 3 2 1 0 0 0 1 1 0 0 0 0 0 0 0 0 0 0 0 0 0 0 0 0 0 0 0 0 0 0 0 0 0 0 0 0 0 0 0 0 0
6 4 3 1 0 1 1 0 1 1 0 0 0 0 0 1 0 0 0 0 0 0 0 0 0 0 0 0 0 0 0 0 0 1 1 0 0 0 0 0 0 0 0
7 6 4 1 1 1 1 0 0 0 0 0 0 0 0 0 0 0 0 0 0 0 0 0 0 0 0 0 0 0 0 0 0 1 1 0 0 0 0 0 0 0 0
7 7 5 3 1 1 1 0 0 0 0 0 0 0 0 0 0 0 0 0 0 0 0 0 0 0 0 0 0 0 0 0 0 1 1 0 0 0 0 0 0 0 0
5 6 4 3 2 1 0 0 0 0 0 0 0 0 0 0 0 0 0 0 0 0 0 0 1 1 1 0 0 0 0 0 0 0 0 0 0 0 0 0 0 0 0
4 4 3 3 4 3 2 1 1 2 1 2 2 1 0 0 0 0 0 1 1 1 0 1 2 2 2 2 1 0 0 0 1 1 1 0 0 0 0 0 0 1 1
5 4 4 5 7 7 5 3 4 5 4 4 4 3 1 0 0 0 0 1 2 2 2 2 3 3 3 4 3 1 1 1 1 2 2 1 0 0 0 0 0 1 2
7 6 6 7 9 9 7 5 5 6 5 5 5 4 3 2 1 0 0 0 1 3 4 4 4 4 4 5 4 3 2 1 1 3 3 2 1 0 0 0 0 1 1
9 8 7 6 7 7 7 6 5 5 5 5 5 6 6 4 1 0 0 1 2 3 5 5 5 5 4 4 3 3 3 2 1 2 2 2 2 1 1 0 0 0 0
9 9 8 6 5 5 6 6 6 6 7 8 8 8 9 7 3 2 3 3 3 4 5 6 6 6 5 4 3 3 3 1 0 1 1 1 2 2 1 0 0 0 0
10 10 9 7 5 5 6 7 8 9 10 11 10 10 11 8 6 6 7 7 6 6 5 4 5 5 4 4 4 3 2 1 0 0 0 0 1 1 1 0 0 0 0
9 10 9 7 6 5 6 9 11 11 12 12 12 12 11 9 8 8 9 9 8 6 5 5 6 5 4 3 3 2 2 1 0 0 0 0 0 0 0 0 0 0 0
11 10 9 7 6 6 7 9 11 11 12 12 13 13 11 10 9 8 8 9 8 6 6 9 9 6 3 2 1 1 1 1 0 0 0 0 0 0 0 0 0 0 0
12 11 8 7 6 6 7 8 8 8 8 10 11 11 9 9 9 8 6 6 6 5 6 9 9 5 2 1 1 2 2 1 0 0 0 0 0 0 0 0 0 0 0
10 9 6 5 5 5 6 6 4 3 4 5 6 6 6 7 9 8 5 4 4 3 4 5 6 3 1 1 2 5 5 3 1 0 0 0 0 0 0 0 0 0 0
6 6 5 4 3 3 4 4 3 2 2 3 3 4 4 7 8 7 4 3 3 3 3 4 4 2 0 0 2 4 5 3 1 0 0 0 0 0 0 0 0 0 0
5 6 6 5 3 2 3 3 3 2 2 3 5 6 7 7 8 7 6 4 4 4 5 5 5 3 1 1 1 2 3 3 1 0 0 0 0 0 0 0 0 0 0
7 7 6 4 2 2 3 3 3 3 3 4 6 8 9 9 9 9 8 6 6 6 6 6 6 5 4 3 2 1 1 2 1 0 0 0 0 0 0 0 0 0 0
11 10 8 6 5 4 5 5 5 5 5 6 7 9 9 8 8 8 8 7 6 6 6 6 6 6 5 4 3 2 1 2 2 1 0 0 0 0 0 1 1 1 0
14 12 10 9 8 8 8 6 6 7 8 8 8 9 9 7 6 7 7 6 6 6 6 7 7 6 6 5 4 4 3 3 3 2 1 1 1 1 1 2 2 2 1
16 14 13 11 10 11 9 5 5 8 10 10 10 10 9 8 7 6 6 5 5 5 6 7 7 6 6 6 6 5 4 3 3 3 3 3 3 2 1 2 3 2 1
18 16 14 13 12 11 9 4 4 9 12 12 11 10 10 9 7 6 6 6 6 6 6 7 7 6 6 6 6 6 5 4 3 3 3 4 5 3 2 2 2 1 0
20 17 15 14 14 12 9 4 4 9 12 11 10 9 9 8 5 4 5 7 7 7 6 6 6 6 6 6 6 6 6 5 4 3 3 4 5 4 3 3 2 1 0
21 18 15 15 15 12 8 4 4 9 12 11 8 7 7 5 4 3 4 7 8 7 6 6 5 5 5 5 5 6 6 6 5 4 3 4 5 4 3 3 3 2 1

GEFSMA_con_probscp_240.txt.gz
Probability
8 6 4 3 3 2 3 2 1 0 0 0 0 0 0 0 1 1 2 3 3 1 0 0 0 0 0 0 0 0 0 0 0 0 0 0 0 0 0 0 0 0 0
6 6 4 4 2 2 3 3 1 0 0 0 0 0 0 1 1 1 3 4 3 2 2 2 2 1 1 1 1 1 1 0 0 0 0 0 0 0 0 0 0 0 0
7 6 5 3 2 2 4 3 2 2 1 0 0 0 1 1 1 1 3 5 5 4 5 6 5 3 2 2 2 2 2 1 1 1 1 0 0 0 0 0 1 1 0
10 8 5 3 1 2 3 3 3 3 2 1 0 0 1 2 2 1 2 4 5 5 7 8 8 6 4 3 3 3 3 3 2 2 2 1 1 0 0 0 1 1 1
12 9 6 3 2 1 3 3 4 5 4 2 1 0 1 3 3 1 1 2 4 6 7 8 9 8 6 4 4 4 4 4 4 3 3 3 2 1 0 0 0 0 0
12 10 7 5 4 3 3 4 6 5 4 3 2 1 1 2 2 2 2 2 2 4 5 6 7 8 7 6 6 5 4 4 4 3 2 2 2 1 0 0 0 0 0
13 11 9 8 7 5 4 5 6 5 3 2 2 2 1 2 3 3 4 3 2 2 2 2 4 6 7 6 6 6 5 4 3 2 1 1 1 1 0 0 1 0 0
16 14 12 11 9 8 6 5 5 4 2 1 2 2 1 2 3 4 4 4 4 3 2 2 4 6 7 6 6 6 7 6 4 3 2 1 0 0 0 0 0 0 0
19 18 16 14 11 9 6 4 4 4 3 1 1 2 2 1 2 4 5 5 7 8 6 4 6 9 10 9 8 7 8 8 7 6 5 3 1 1 0 0 0 0 0
19 20 19 17 12 9 6 4 5 7 7 4 3 4 5 4 3 4 6 8 11 13 11 8 9 11 13 13 12 10 8 7 8 8 7 5 4 3 1 0 0 0 0
19 21 23 22 17 11 7 6 6 8 10 8 7 6 6 7 6 4 5 7 10 11 13 13 12 12 13 15 15 12 7 6 6 7 7 6 6 5 3 1 1 0 0
20 21 23 24 22 16 12 9 7 8 10 10 9 8 9 9 7 3 2 3 5 6 10 13 13 11 12 13 12 9 5 3 3 3 4 4 5 5 5 4 3 1 1
18 19 21 22 20 16 14 12 10 9 9 9 9 10 11 11 9 6 3 2 1 2 5 9 10 9 9 9 7 4 2 1 1 1 1 2 3 3 4 5 4 3 2
19 21 21 18 13 10 11 14 13 11 9 8 7 8 11 12 12 10 7 4 2 1 2 4 6 6 6 5 3 1 0 0 0 0 0 1 1 1 2 3 3 3 2
23 24 21 15 9 7 9 12 11 10 10 9 8 8 10 11 11 10 8 7 5 3 2 3 4 4 4 3 1 0 0 0 0 0 0 0 0 0 1 1 1 2 2
25 25 21 14 9 7 8 8 8 8 9 10 9 8 9 10 10 8 8 8 9 7 5 6 7 5 3 2 1 1 2 1 1 0 0 0 0 0 0 0 0 1 1
26 26 23 16 10 9 8 7 6 6 7 8 7 7 8 10 10 9 8 10 12 10 8 8 9 6 5 3 3 3 3 3 2 1 0 0 0 0 0 0 0 0 0
26 27 24 17 12 10 9 8 6 6 6 7 7 8 9 11 12 12 12 13 13 11 8 8 8 7 6 5 4 3 3 3 3 2 0 0 0 0 0 0 0 0 0
29 29 25 19 14 12 10 9 8 7 8 9 9 10 11 13 15 15 15 15 14 12 9 7 7 7 7 6 5 4 3 3 3 2 0 0 0 0 0 0 0 0 0
32 31 28 24 18 14 13 13 13 12 13 13 12 11 13 15 15 15 14 15 14 12 10 8 6 6 6 6 6 5 4 3 3 2 1 1 1 1 0 0 0 0 0
36 35 31 27 22 17 14 15 16 16 17 17 15 14 13 13 13 11 11 11 11 11 9 7 6 6 6 6 6 6 5 4 4 3 3 2 2 2 1 1 0 0 0
38 36 32 28 24 18 12 11 13 14 17 19 18 15 13 11 10 9 7 6 7 7 6 6 6 6 6 6 6 6 6 6 5 4 3 3 3 3 3 2 1 0 0
39 36 32 29 26 19 11 7 7 11 15 18 19 16 11 9 9 8 5 3 2 2 3 4 6 6 6 6 6 6 6 6 5 5 4 3 3 3 3 3 2 1 0
38 37 34 32 30 22 11 6 6 11 16 18 18 15 10 7 7 6 5 3 2 1 1 2 4 5 5 4 4 4 4 4 4 4 3 3 3 3 3 3 2 1 0
37 37 36 35 34 25 13 6 7 13 18 17 14 12 10 6 4 4 4 5 4 3 2 1 1 2 2 1 1 2 2 3 3 3 4 3 3 3 3 3 2 1 0
37 37 37 37 34 25 14 6 7 13 17 14 12 11 9 5 2 2 4 6 6 4 3 2 1 0 0 0 0 1 1 2 3 4 4 4 3 3 3 3 2 1 0

GEFSMA_con_probscp_246.txt.gz
Probability
3 2 2 2 2 1 0 0 0 0 0 0 0 1 2 2 3 3 2 3 4 6 6 6 6 6 6 6 5 4 3 3 3 2 2 2 2 3 3 3 3 3 3
2 1 1 1 1 0 0 0 0 0 0 0 1 1 1 2 3 3 2 3 4 5 7 7 7 6 6 6 6 5 4 3 3 1 1 1 2 2 3 3 3 3 3
1 1 1 1 0 0 0 1 1 1 1 1 2 2 2 3 3 3 2 3 3 5 6 7 7 7 6 6 7 7 6 4 3 1 1 1 2 2 2 3 3 3 3
3 3 2 2 1 1 1 2 2 2 2 3 3 3 3 3 3 3 3 3 3 4 4 5 7 8 7 6 7 8 8 5 3 1 1 2 2 2 2 3 3 3 3
5 4 3 3 3 2 3 3 3 3 3 3 3 3 3 3 3 3 3 3 3 3 3 4 6 8 7 6 6 7 7 5 3 2 2 3 2 2 2 3 3 3 3
5 4 3 3 3 3 3 3 3 3 3 3 3 3 3 3 3 3 3 3 3 3 3 3 4 6 5 4 4 5 6 5 4 3 3 3 3 2 3 3 2 3 3
5 4 3 3 3 3 3 3 3 3 3 3 3 3 3 3 3 3 3 3 3 3 3 3 3 3 3 3 3 4 5 5 5 4 3 3 3 3 3 3 3 3 3
6 5 4 4 3 3 3 3 3 3 3 3 3 3 3 3 3 3 3 3 3 3 3 2 1 1 1 1 3 4 5 5 5 5 4 3 4 4 4 3 3 3 3
7 6 4 3 3 3 3 3 3 3 3 3 3 3 3 3 3 2 2 2 1 1 2 2 1 0 0 0 1 4 5 6 6 6 6 5 5 4 3 3 3 3 3
9 7 5 4 4 4 4 3 3 3 3 3 3 3 3 3 3 2 2 2 1 0 1 1 1 0 0 0 1 3 4 6 8 8 9 9 7 6 4 4 3 3 3
9 8 7 5 4 4 4 4 3 3 3 3 2 2 1 1 2 2 2 2 2 1 0 0 0 0 0 0 1 2 3 4 6 7 8 9 10 9 8 6 4 3 3
8 9 8 6 5 5 5 4 4 4 3 2 1 1 1 1 1 2 2 1 1 1 0 0 0 0 0 0 1 3 3 3 4 4 5 6 8 9 9 8 5 3 2
7 9 9 7 6 6 6 6 6 5 4 3 2 1 1 1 2 3 2 1 0 0 0 0 0 0 0 0 2 3 3 2 2 3 3 4 5 6 6 6 4 2 1
6 7 8 8 8 7 6 6 6 5 4 3 2 1 1 1 2 2 2 1 0 0 0 0 0 0 0 0 1 1 1 1 1 1 2 2 2 2 2 2 1 1 0
4 5 6 7 7 7 7 7 6 4 2 1 1 0 0 0 1 1 1 1 0 0 0 0 0 0 0 0 0 0 0 0 0 0 1 1 1 1 0 0 0 0 0
3 4 6 6 7 8 8 7 5 3 2 1 1 1 0 0 0 0 0 0 0 0 0 0 0 0 0 0 0 0 0 0 0 0 0 0 0 0 0 0 0 0 0
5 6 7 8 8 9 8 6 4 3 3 2 2 2 1 1 1 0 0 0 0 0 0 0 0 0 0 0 0 0 0 0 0 0 0 0 0 0 0 0 0 0 0
10 10 11 10 9 8 7 5 3 3 3 3 3 3 3 3 3 2 2 1 1 1 0 0 0 0 0 1 1 1 1 2 1 1 0 0 0 0 0 0 0 0 0
15 14 13 11 8 7 6 5 4 3 3 2 2 3 4 5 5 4 4 3 3 2 1 0 0 0 0 1 2 2 2 2 2 1 1 1 0 0 0 0 0 0 0
17 15 13 10 9 7 7 6 4 3 3 2 2 2 3 5 6 5 5 4 3 2 0 0 1 0 0 1 1 1 1 1 1 1 2 2 1 1 0 0 0 0 0
15 14 12 11 10 9 7 6 5 5 5 4 3 2 3 4 5 5 5 4 2 1 0 0 0 0 0 0 0 0 0 0 0 0 1 2 2 2 1 0 0 0 0
16 15 14 14 14 12 8 6 6 7 7 6 3 2 3 3 4 5 4 3 2 1 0 0 0 0 0 0 0 0 0 0 0 0 0 1 2 2 2 1 0 0 0
17 17 16 17 17 14 10 7 5 7 8 6 4 2 2 3 3 4 3 1 1 0 0 1 0 0 0 0 0 0 0 0 0 0 0 0 1 1 2 2 1 0 0
17 17 18 20 19 16 11 7 6 7 8 7 5 3 2 2 2 2 1 0 0 0 0 0 0 0 0 0 0 0 0 0 0 0 0 0 0 0 1 2 1 0 0
18 18 20 21 21 17 11 7 6 10 11 9 6 2 1 1 1 1 0 0 0 0 0 0 0 0 0 0 0 0 0 0 0 0 0 0 0 0 1 2 1 0 0
20 21 21 22 21 18 12 7 7 11 13 11 7 2 0 0 0 0 0 0 0 0 0 0 0 0 0 0 0 0 0 0 0 0 0 0 0 0 0 1 1 0 0

GEFSMA_con_probscp_252.txt.gz
Probability
0 0 0 0 0 0 0 0 0 0 0 0 0 0 0 0 0 0 0 0 0 0 0 0 1 2 3 3 3 3 1 0 0 0 0 0 0 0 0 0 0 0 0
0 0 0 0 0 0 0 0 0 0 0 0 0 0 0 0 0 0 0 0 0 0 0 0 1 2 3 4 4 4 3 1 0 0 0 0 0 0 0 0 0 0 0
0 0 0 0 0 0 0 0 0 0 0 0 0 0 0 0 0 0 0 0 0 0 1 1 2 2 3 4 5 5 4 2 1 0 0 0 0 0 0 0 0 0 0
0 0 0 0 0 0 0 0 0 0 0 0 0 0 0 0 0 0 0 0 0 0 1 2 3 2 2 3 3 3 3 3 2 1 0 0 0 0 0 0 0 0 0
0 0 0 0 0 0 0 0 0 0 0 0 0 0 0 0 0 0 0 0 0 0 1 2 2 3 3 3 3 2 2 3 3 2 0 0 0 0 0 0 0 0 0
0 0 0 0 0 0 0 0 0 0 0 0 0 0 0 0 0 0 0 0 0 0 0 1 1 2 3 3 3 2 1 2 2 1 0 0 0 0 0 0 0 0 0
0 0 0 0 0 0 0 0 0 0 0 0 0 0 0 0 0 0 0 0 0 0 0 0 0 1 1 1 2 2 1 1 1 1 1 1 0 0 0 0 0 0 0
0 0 0 0 0 0 0 0 0 0 0 0 0 0 0 0 0 0 0 0 0 0 0 0 0 0 0 0 1 1 1 1 1 1 2 2 1 0 0 0 0 0 0
0 0 0 0 0 0 0 0 0 0 0 0 0 0 0 0 0 0 0 0 0 0 0 0 0 0 0 0 0 0 1 1 2 2 3 4 2 1 1 1 0 0 0
0 0 0 0 0 0 0 0 0 0 0 1 1 0 0 0 0 0 0 0 0 0 0 0 0 0 0 0 0 0 0 1 1 2 3 3 2 1 2 2 1 0 0
0 0 0 0 0 0 0 0 0 0 0 1 1 0 0 0 0 0 0 0 0 0 0 0 0 0 0 0 0 0 0 0 0 1 1 1 1 1 3 3 2 1 1
1 1 1 0 0 0 0 0 1 1 1 1 1 0 0 0 0 0 0 0 0 0 0 0 0 0 0 0 0 0 0 0 0 0 0 0 0 1 2 3 3 3 2
1 2 1 0 0 0 1 1 2 2 2 2 1 0 0 0 0 0 0 0 0 0 0 0 0 0 0 0 0 0 0 0 0 0 0 0 0 0 0 1 2 2 2
0 1 1 0 0 0 1 2 3 3 3 2 1 0 0 0 0 1 0 0 0 0 0 0 0 0 0 0 0 1 0 0 0 0 0 0 0 0 0 0 1 1 1
0 0 0 0 0 1 2 3 3 2 2 1 0 0 0 0 0 0 0 0 0 1 1 0 0 0 0 0 0 0 0 0 0 0 0 0 0 0 0 0 0 0 0
1 0 0 0 1 2 2 2 1 1 1 0 0 1 1 1 0 0 1 1 1 2 1 0 0 0 0 0 0 0 0 0 0 0 0 0 0 0 0 0 0 0 0
2 2 1 1 3 3 2 1 0 0 0 1 1 2 2 2 1 1 2 3 3 3 2 1 0 0 0 0 0 0 0 0 0 0 0 0 0 0 0 0 0 0 0
5 4 3 3 4 3 1 0 0 1 1 2 3 3 3 2 2 2 4 5 5 4 4 2 1 1 1 0 0 0 0 0 0 0 0 0 0 0 0 0 0 0 0
8 7 5 5 5 2 0 0 1 2 3 3 3 3 3 2 3 4 5 6 5 5 5 3 2 1 1 0 0 0 0 0 0 0 0 0 0 0 0 0 0 0 0
9 8 7 7 6 3 1 1 2 3 4 4 4 4 4 3 5 6 6 6 5 4 4 3 2 1 1 0 0 0 0 0 0 0 0 0 0 0 0 0 0 0 0
8 8 9 9 7 5 3 3 4 5 6 6 6 7 7 5 5 5 4 4 4 4 3 2 1 0 0 0 0 0 0 0 0 0 0 0 0 0 0 0 0 0 0
9 10 10 9 7 6 4 3 4 6 9 10 10 10 10 8 5 3 2 2 2 3 3 1 0 0 0 0 0 0 0 0 0 0 0 0 0 0 0 0 0 0 0
11 11 10 9 8 6 4 2 3 7 11 13 12 12 12 9 6 4 3 2 1 2 2 1 0 0 0 0 0 0 0 0 0 0 0 0 0 0 0 0 0 0 0
13 12 10 9 9 8 6 4 5 9 13 13 12 12 11 8 6 5 4 3 2 1 1 1 0 0 0 0 0 0 0 0 0 0 0 0 0 0 0 0 0 0 0
14 12 10 10 10 10 8 4 6 12 15 15 13 11 9 6 4 4 4 3 1 1 0 0 0 0 0 0 0 0 0 0 0 0 0 0 0 0 0 0 0 0 0
13 11 9 10 12 12 9 4 5 13 17 16 15 12 8 5 3 2 3 2 1 0 0 0 0 0 0 0 0 0 0 0 0 0 0 0 0 0 0 0 0 0 0

GEFSMA_con_probscp_258.txt.gz
Probability
0 0 0 0 0 0 0 0 0 0 0 0 0 0 0 0 0 1 2 2 1 0 0 0 0 0 0 0 1 2 3 3 3 3 2 0 0 0 0 0 0 0 0
0 0 0 0 0 0 0 0 0 0 0 0 0 0 0 0 0 0 1 1 0 0 0 0 0 0 0 0 1 2 3 4 4 4 2 1 0 0 0 0 0 0 0
0 0 0 0 0 0 0 0 0 0 0 0 0 0 0 0 0 0 0 0 0 0 0 0 1 1 1 1 2 2 4 4 3 2 2 1 1 0 0 0 0 0 0
0 0 0 0 0 0 0 0 0 0 1 0 0 0 0 0 0 1 1 1 1 2 1 1 2 2 2 2 3 3 4 4 3 1 1 0 1 1 1 0 0 0 0
0 0 0 0 0 0 0 1 1 1 1 0 0 0 0 0 1 1 1 2 4 5 4 3 3 3 3 3 3 3 4 4 4 2 1 0 0 1 1 1 0 0 0
0 0 0 1 1 0 1 1 2 2 1 0 0 0 0 0 1 1 1 2 4 5 4 4 4 4 3 3 3 3 4 5 5 4 1 0 0 1 1 1 1 1 0
0 0 0 0 1 1 1 2 3 2 1 2 2 1 1 2 2 2 1 2 2 3 3 4 5 4 3 3 3 3 4 5 5 5 3 1 1 0 0 1 1 1 1
1 2 1 0 0 0 1 2 3 3 3 4 5 5 4 3 3 4 4 5 4 4 4 4 4 5 5 5 4 4 3 4 5 6 5 4 2 1 1 0 1 1 1
3 3 2 1 0 0 1 2 4 5 6 7 8 9 8 6 6 6 5 6 7 7 6 5 5 6 7 9 9 6 4 3 4 5 5 5 4 3 2 1 0 0 1
3 3 3 1 1 1 1 2 4 7 9 9 9 11 10 9 9 7 5 5 6 7 6 6 6 8 9 12 12 7 4 3 2 2 4 5 4 3 2 1 0 0 0
3 3 3 3 2 2 2 4 6 8 10 9 9 10 10 9 9 8 6 4 4 3 3 3 5 8 9 10 9 5 2 1 1 1 2 3 3 2 2 1 0 0 0
3 3 4 4 3 4 5 6 7 8 8 9 10 9 8 8 8 8 6 4 2 1 0 1 4 7 8 7 4 2 0 0 0 0 1 1 1 1 1 0 0 0 0
2 3 4 4 5 6 7 8 7 7 7 9 10 9 7 6 7 8 7 4 2 1 1 2 4 7 8 7 3 0 0 0 0 0 0 0 0 0 0 0 0 0 0
1 3 5 6 6 6 7 8 7 6 7 8 9 9 7 5 5 8 9 8 5 4 4 4 5 6 7 6 2 0 0 0 0 0 0 0 0 0 0 0 0 0 0
3 4 5 6 6 6 7 8 8 7 8 8 9 9 8 6 6 9 12 14 13 9 7 8 7 5 5 3 1 0 0 1 0 0 0 0 0 0 0 0 0 0 0
6 5 5 5 5 6 7 7 8 8 9 9 9 10 10 10 10 12 15 19 19 15 11 10 9 7 5 3 1 0 0 1 0 0 0 0 0 0 0 0 0 0 0
9 8 7 6 7 8 7 6 6 8 10 10 10 10 11 12 12 14 16 19 19 16 14 12 11 10 9 6 3 1 1 1 0 0 0 0 0 0 0 0 0 0 0
11 11 10 10 11 11 9 6 6 7 9 10 10 9 10 11 13 14 16 16 15 14 14 13 12 12 11 8 4 2 1 0 0 0 0 0 0 0 0 0 0 0 0
12 12 12 13 13 13 11 9 7 7 8 10 10 10 10 12 14 15 15 14 13 13 14 14 12 11 9 6 3 1 0 0 0 0 0 0 0 0 0 0 0 0 0
16 16 17 16 14 14 12 10 8 8 9 11 11 12 13 15 16 17 16 15 14 15 16 15 13 10 6 3 1 0 0 0 0 0 0 0 0 0 0 0 0 0 0
20 22 22 20 16 14 11 9 8 10 12 15 16 18 18 19 18 17 14 12 12 15 17 16 14 10 6 4 2 1 0 0 0 0 0 0 0 0 0 0 0 0 0
25 26 27 24 20 14 8 6 7 11 16 21 23 24 23 22 20 16 10 6 7 10 13 15 14 12 9 8 6 3 1 0 0 0 0 0 0 0 0 0 0 0 0
33 32 31 30 25 15 7 3 4 10 18 24 25 25 25 24 23 19 13 9 8 8 10 13 14 14 14 14 12 7 2 0 0 0 0 0 0 0 0 0 0 0 0
39 38 36 34 29 18 10 4 3 10 18 23 24 25 25 24 23 21 18 17 15 12 9 9 11 13 13 13 12 9 4 1 0 0 1 0 0 0 0 0 0 0 0
40 39 37 35 29 21 13 6 5 13 20 22 22 23 22 21 18 17 19 19 18 16 11 8 7 7 7 7 8 8 5 2 0 0 0 0 0 0 0 0 0 0 0
39 38 35 32 28 22 14 6 6 15 21 22 21 20 19 17 14 14 17 17 17 16 14 10 6 4 3 3 4 6 6 3 1 0 0 0 0 0 0 0 0 0 0